Back to catalog

STARLINK-32131

AliveCommunicationsVLEO
NORAD 60153·PAYLOAD·🇺🇸 United States

Launched Jun 27, 2024 from Cape Canaveral Space Force Station

Loading…

Next Passes (next 24 hours)

TLE

FreshSource: CelesTrak SupGP

Epoch: Sep 14, 2026, 14:32 UTC

1 60153C 24120U   26257.60604167  .00060280  00000+0  17814-2 0  2571
2 60153  53.1571 159.0144 0001250  87.5599  78.4080 15.34353152    14

Track STARLINK-32131 in real time with AllMySat

Download on the App Store